{"data":{"norad_id":66841,"epoch":"2026-05-25T03:18:49.203072Z","epoch_age_seconds":56932,"freshness":"FRESH","line1":"1 66841U 25280W   26145.13806948 -.00000252  00000+0 -13320-4 0  9992","line2":"2 66841  70.0011 141.8438 0003833 267.0201  93.0519 14.98328417 27520","mean_motion":14.98328417,"eccentricity":0.0003833,"inclination_deg":70.0011,"raan_deg":141.8438,"arg_perigee_deg":267.0201,"mean_anomaly_deg":93.0519,"bstar":-1.332e-5,"rev_number":2752,"period_min":96.107100663766,"perigee_km":569.39677543418,"apogee_km":574.72479705711,"semimajor_km":6950.1977862456,"source":"CELESTRAK","updated_at":"2026-05-25T13:38:21.338002Z"}}